Year,Month,Day,Hour,Minute,Value (Times are PST for temperature in C)
2015,07,16,00,00,12.90
2015,07,16,00,01,12.90
2015,07,16,00,02,12.90
2015,07,16,00,03,12.90
2015,07,16,00,04,13.00
2015,07,16,00,05,13.00
2015,07,16,00,06,13.00
2015,07,16,00,07,13.00
2015,07,16,00,08,13.00
2015,07,16,00,09,13.00
2015,07,16,00,10,13.00
2015,07,16,00,11,13.00
2015,07,16,00,12,12.90
2015,07,16,00,13,12.90
2015,07,16,00,14,12.90
2015,07,16,00,15,12.90
2015,07,16,00,16,12.90
2015,07,16,00,17,12.80
2015,07,16,00,18,12.80
2015,07,16,00,19,12.80
2015,07,16,00,20,12.70
2015,07,16,00,21,12.70
2015,07,16,00,22,12.70
2015,07,16,00,23,12.60
2015,07,16,00,24,12.60
2015,07,16,00,25,12.60
2015,07,16,00,26,12.60
2015,07,16,00,27,12.50
2015,07,16,00,28,12.50
2015,07,16,00,29,12.40
2015,07,16,00,30,12.40
2015,07,16,00,31,12.40
2015,07,16,00,32,12.40
2015,07,16,00,33,12.30
2015,07,16,00,34,12.30
2015,07,16,00,35,12.30
2015,07,16,00,36,12.30
2015,07,16,00,37,12.30
2015,07,16,00,38,12.30
2015,07,16,00,39,12.30
2015,07,16,00,40,12.30
2015,07,16,00,41,12.30
2015,07,16,00,42,12.30
2015,07,16,00,43,12.30
2015,07,16,00,44,12.30
2015,07,16,00,45,12.30
2015,07,16,00,46,12.30
2015,07,16,00,47,12.30
2015,07,16,00,48,12.20
2015,07,16,00,49,12.20
2015,07,16,00,50,12.20
2015,07,16,00,51,12.20
2015,07,16,00,52,12.20
2015,07,16,00,53,12.20
2015,07,16,00,54,12.20
2015,07,16,00,55,12.20
2015,07,16,00,56,12.20
2015,07,16,00,57,12.20
2015,07,16,00,58,12.20
2015,07,16,00,59,12.20
2015,07,16,01,00,12.20
2015,07,16,01,01,12.20
2015,07,16,01,02,12.20
2015,07,16,01,03,12.20
2015,07,16,01,04,12.20
2015,07,16,01,05,12.20
2015,07,16,01,06,12.20
2015,07,16,01,07,12.20
2015,07,16,01,08,12.20
2015,07,16,01,09,12.20
2015,07,16,01,10,12.10
2015,07,16,01,11,12.10
2015,07,16,01,12,12.10
2015,07,16,01,13,12.10
2015,07,16,01,14,12.10
2015,07,16,01,15,12.00
2015,07,16,01,16,12.00
2015,07,16,01,17,12.00
2015,07,16,01,18,12.00
2015,07,16,01,19,11.90
2015,07,16,01,20,11.90
2015,07,16,01,21,11.90
2015,07,16,01,22,11.90
2015,07,16,01,23,11.90
2015,07,16,01,24,11.90
2015,07,16,01,25,11.90
2015,07,16,01,26,11.80
2015,07,16,01,27,11.80
2015,07,16,01,28,11.80
2015,07,16,01,29,11.80
2015,07,16,01,30,11.80
2015,07,16,01,31,11.80
2015,07,16,01,32,11.70
2015,07,16,01,33,11.70
2015,07,16,01,34,11.70
2015,07,16,01,35,11.70
2015,07,16,01,36,11.70
2015,07,16,01,37,11.70
2015,07,16,01,38,11.70
2015,07,16,01,39,11.70
2015,07,16,01,40,11.70
2015,07,16,01,41,11.60
2015,07,16,01,42,11.60
2015,07,16,01,43,11.60
2015,07,16,01,44,11.60
2015,07,16,01,45,11.60
2015,07,16,01,46,11.60
2015,07,16,01,47,11.60
2015,07,16,01,48,11.60
2015,07,16,01,49,11.50
2015,07,16,01,50,11.50
2015,07,16,01,51,11.50
2015,07,16,01,52,11.50
2015,07,16,01,53,11.60
2015,07,16,01,54,11.60
2015,07,16,01,55,11.60
2015,07,16,01,56,11.70
2015,07,16,01,57,11.70
2015,07,16,01,58,11.80
2015,07,16,01,59,11.80
2015,07,16,02,00,11.90
2015,07,16,02,01,11.90
2015,07,16,02,02,11.90
2015,07,16,02,03,11.90
2015,07,16,02,04,11.90
2015,07,16,02,05,11.90
2015,07,16,02,06,11.90
2015,07,16,02,07,11.80
2015,07,16,02,08,11.80
2015,07,16,02,09,11.80
2015,07,16,02,10,11.70
2015,07,16,02,11,11.70
2015,07,16,02,12,11.70
2015,07,16,02,13,11.70
2015,07,16,02,14,11.70
2015,07,16,02,15,11.70
2015,07,16,02,16,11.70
2015,07,16,02,17,11.80
2015,07,16,02,18,11.80
2015,07,16,02,19,11.80
2015,07,16,02,20,11.70
2015,07,16,02,21,11.70
2015,07,16,02,22,11.60
2015,07,16,02,23,11.60
2015,07,16,02,24,11.60
2015,07,16,02,25,11.50
2015,07,16,02,26,11.50
2015,07,16,02,27,11.50
2015,07,16,02,28,11.50
2015,07,16,02,29,11.40
2015,07,16,02,30,11.40
2015,07,16,02,31,11.40
2015,07,16,02,32,11.40
2015,07,16,02,33,11.30
2015,07,16,02,34,11.30
2015,07,16,02,35,11.30
2015,07,16,02,36,11.30
2015,07,16,02,37,11.30
2015,07,16,02,38,11.20
2015,07,16,02,39,11.20
2015,07,16,02,40,11.20
2015,07,16,02,41,11.20
2015,07,16,02,42,11.10
2015,07,16,02,43,11.10
2015,07,16,02,44,11.10
2015,07,16,02,45,11.10
2015,07,16,02,46,11.10
2015,07,16,02,47,11.10
2015,07,16,02,48,11.00
2015,07,16,02,49,11.00
2015,07,16,02,50,11.00
2015,07,16,02,51,11.00
2015,07,16,02,52,11.00
2015,07,16,02,53,11.00
2015,07,16,02,54,11.00
2015,07,16,02,55,11.00
2015,07,16,02,56,10.90
2015,07,16,02,57,10.90
2015,07,16,02,58,10.90
2015,07,16,02,59,10.90
2015,07,16,03,00,10.90
2015,07,16,03,01,10.90
2015,07,16,03,02,10.90
2015,07,16,03,03,10.90
2015,07,16,03,04,10.90
2015,07,16,03,05,10.90
2015,07,16,03,06,10.90
2015,07,16,03,07,10.90
2015,07,16,03,08,10.90
2015,07,16,03,09,10.90
2015,07,16,03,10,10.80
2015,07,16,03,11,10.80
2015,07,16,03,12,10.80
2015,07,16,03,13,10.80
2015,07,16,03,14,10.80
2015,07,16,03,15,10.80
2015,07,16,03,16,10.80
2015,07,16,03,17,10.80
2015,07,16,03,18,10.80
2015,07,16,03,19,10.80
2015,07,16,03,20,10.80
2015,07,16,03,21,10.80
2015,07,16,03,22,10.80
2015,07,16,03,23,10.80
2015,07,16,03,24,10.80
2015,07,16,03,25,10.80
2015,07,16,03,26,10.80
2015,07,16,03,27,10.80
2015,07,16,03,28,10.80
2015,07,16,03,29,10.80
2015,07,16,03,30,10.80
2015,07,16,03,31,10.80
2015,07,16,03,32,10.70
2015,07,16,03,33,10.70
2015,07,16,03,34,10.70
2015,07,16,03,35,10.70
2015,07,16,03,36,10.70
2015,07,16,03,37,10.70
2015,07,16,03,38,10.70
2015,07,16,03,39,10.70
2015,07,16,03,40,10.60
2015,07,16,03,41,10.60
2015,07,16,03,42,10.60
2015,07,16,03,43,10.60
2015,07,16,03,44,10.60
2015,07,16,03,45,10.60
2015,07,16,03,46,10.60
2015,07,16,03,47,10.50
2015,07,16,03,48,10.50
2015,07,16,03,49,10.50
2015,07,16,03,50,10.50
2015,07,16,03,51,10.50
2015,07,16,03,52,10.40
2015,07,16,03,53,10.40
2015,07,16,03,54,10.40
2015,07,16,03,55,10.40
2015,07,16,03,56,10.30
2015,07,16,03,57,10.30
2015,07,16,03,58,10.30
2015,07,16,03,59,10.30
2015,07,16,04,00,10.30
2015,07,16,04,01,10.30
2015,07,16,04,02,10.30
2015,07,16,04,03,10.30
2015,07,16,04,04,10.30
2015,07,16,04,05,10.30
2015,07,16,04,06,10.30
2015,07,16,04,07,10.30
2015,07,16,05,02,10.20
2015,07,16,05,03,10.20
2015,07,16,05,04,10.20
2015,07,16,05,05,10.20
2015,07,16,05,06,10.20
2015,07,16,05,07,10.20
2015,07,16,05,08,10.20
2015,07,16,05,09,10.20
2015,07,16,05,10,10.20
2015,07,16,05,11,10.20
2015,07,16,05,12,10.20
2015,07,16,05,13,10.20
2015,07,16,05,14,10.20
2015,07,16,05,15,10.20
2015,07,16,05,16,10.20
2015,07,16,05,17,10.20
2015,07,16,05,18,10.20
2015,07,16,05,19,10.20
2015,07,16,05,20,10.20
2015,07,16,05,21,10.20
2015,07,16,05,22,10.20
2015,07,16,05,23,10.10
2015,07,16,05,24,10.10
2015,07,16,05,25,10.10
2015,07,16,05,26,10.20
2015,07,16,05,27,10.20
2015,07,16,05,28,10.20
2015,07,16,05,29,10.30
2015,07,16,05,30,10.30
2015,07,16,05,31,10.30
2015,07,16,05,32,10.30
2015,07,16,05,33,10.30
2015,07,16,05,34,10.30
2015,07,16,05,35,10.30
2015,07,16,05,36,10.30
2015,07,16,05,37,10.30
2015,07,16,05,38,10.20
2015,07,16,05,39,10.30
2015,07,16,05,40,10.20
2015,07,16,05,41,10.20
2015,07,16,05,42,10.20
2015,07,16,05,43,10.20
2015,07,16,05,44,10.30
2015,07,16,05,45,10.30
2015,07,16,05,46,10.30
2015,07,16,05,47,10.30
2015,07,16,05,48,10.30
2015,07,16,05,49,10.30
2015,07,16,05,50,10.30
2015,07,16,05,51,10.30
2015,07,16,05,52,10.30
2015,07,16,05,53,10.20
2015,07,16,05,54,10.20
2015,07,16,05,55,10.20
2015,07,16,05,56,10.20
2015,07,16,05,57,10.20
2015,07,16,05,58,10.20
2015,07,16,05,59,10.10
2015,07,16,06,00,10.10
2015,07,16,06,01,10.10
2015,07,16,06,02,10.10
2015,07,16,06,03,10.10
2015,07,16,06,04,10.10
2015,07,16,06,05,10.10
2015,07,16,06,06,10.10
2015,07,16,06,07,10.10
2015,07,16,06,08,10.10
2015,07,16,06,09,10.20
2015,07,16,06,10,10.20
2015,07,16,06,11,10.20
2015,07,16,06,12,10.20
2015,07,16,06,13,10.20
2015,07,16,06,14,10.20
2015,07,16,06,15,10.20
2015,07,16,06,16,10.20
2015,07,16,06,17,10.20
2015,07,16,06,18,10.20
2015,07,16,06,19,10.20
2015,07,16,06,20,10.30
2015,07,16,06,21,10.30
2015,07,16,06,22,10.30
2015,07,16,06,23,10.30
2015,07,16,06,24,10.30
2015,07,16,06,25,10.30
2015,07,16,06,26,10.30
2015,07,16,06,27,10.30
2015,07,16,06,28,10.30
2015,07,16,06,29,10.30
2015,07,16,06,30,10.30
2015,07,16,06,31,10.30
2015,07,16,06,32,10.30
2015,07,16,06,33,10.30
2015,07,16,06,34,10.30
2015,07,16,06,35,10.30
2015,07,16,06,36,10.30
2015,07,16,06,37,10.30
2015,07,16,06,38,10.40
2015,07,16,06,39,10.40
2015,07,16,06,40,10.40
2015,07,16,06,41,10.40
2015,07,16,06,42,10.50
2015,07,16,06,43,10.50
2015,07,16,06,44,10.60
2015,07,16,06,45,10.70
2015,07,16,06,46,10.70
2015,07,16,06,47,10.80
2015,07,16,06,48,10.80
2015,07,16,06,49,10.90
2015,07,16,06,50,10.90
2015,07,16,06,51,11.00
2015,07,16,06,52,11.00
2015,07,16,06,53,11.10
2015,07,16,06,54,11.20
2015,07,16,06,55,11.40
2015,07,16,06,56,11.50
2015,07,16,06,57,11.60
2015,07,16,06,58,11.70
2015,07,16,06,59,11.80
2015,07,16,07,00,11.80
2015,07,16,07,01,11.90
2015,07,16,07,02,11.90
2015,07,16,07,03,12.00
2015,07,16,07,04,12.00
2015,07,16,07,05,12.00
2015,07,16,07,06,12.10
2015,07,16,07,07,12.10
2015,07,16,07,08,12.10
2015,07,16,07,09,12.20
2015,07,16,07,10,12.20
2015,07,16,07,11,12.30
2015,07,16,07,12,12.30
2015,07,16,07,13,12.30
2015,07,16,07,14,12.40
2015,07,16,07,15,12.40
2015,07,16,07,16,12.40
2015,07,16,07,17,12.40
2015,07,16,07,18,12.40
2015,07,16,07,19,12.50
2015,07,16,07,20,12.60
2015,07,16,07,21,12.60
2015,07,16,07,22,12.70
2015,07,16,07,23,12.70
2015,07,16,07,24,12.80
2015,07,16,07,25,12.80
2015,07,16,07,26,12.90
2015,07,16,07,27,12.90
2015,07,16,07,28,12.90
2015,07,16,07,29,13.00
2015,07,16,07,30,13.10
2015,07,16,07,31,13.10
2015,07,16,07,32,13.10
2015,07,16,07,33,13.20
2015,07,16,07,34,13.20
2015,07,16,07,35,13.20
2015,07,16,07,36,13.20
2015,07,16,07,37,13.30
2015,07,16,07,38,13.40
2015,07,16,07,39,13.40
2015,07,16,07,40,13.50
2015,07,16,07,41,13.50
2015,07,16,07,42,13.60
2015,07,16,07,43,13.70
2015,07,16,07,44,13.70
2015,07,16,07,45,13.80
2015,07,16,07,46,13.90
2015,07,16,07,47,13.90
2015,07,16,07,48,14.00
2015,07,16,07,49,14.10
2015,07,16,07,50,14.10
2015,07,16,07,51,14.20
2015,07,16,07,52,14.30
2015,07,16,07,53,14.30
2015,07,16,07,54,14.40
2015,07,16,07,55,14.40
2015,07,16,07,56,14.50
2015,07,16,07,57,14.50
2015,07,16,07,58,14.60
2015,07,16,07,59,14.70
2015,07,16,08,00,14.70
2015,07,16,08,01,14.90
2015,07,16,08,02,14.90
2015,07,16,08,03,15.00
2015,07,16,08,04,15.10
2015,07,16,08,05,15.20
2015,07,16,08,06,15.30
2015,07,16,08,07,15.40
2015,07,16,08,08,15.50
2015,07,16,08,09,15.60
2015,07,16,08,10,15.70
2015,07,16,08,11,15.80
2015,07,16,08,12,15.90
2015,07,16,08,13,16.00
2015,07,16,08,14,16.10
2015,07,16,08,15,16.10
2015,07,16,08,16,16.20
2015,07,16,08,17,16.20
2015,07,16,08,18,16.30
2015,07,16,08,19,16.30
2015,07,16,08,20,16.40
2015,07,16,08,21,16.40
2015,07,16,08,22,16.50
2015,07,16,08,23,16.50
2015,07,16,08,24,16.60
2015,07,16,08,25,16.60
2015,07,16,08,26,16.60
2015,07,16,08,27,16.60
2015,07,16,08,28,16.60
2015,07,16,08,29,16.60
2015,07,16,08,30,16.60
2015,07,16,08,31,16.60
2015,07,16,08,32,16.50
2015,07,16,08,33,16.40
2015,07,16,08,34,16.40
2015,07,16,08,35,16.40
2015,07,16,08,36,16.50
2015,07,16,08,37,16.50
2015,07,16,08,38,16.40
2015,07,16,08,39,16.40
2015,07,16,08,40,16.50
2015,07,16,08,41,16.40
2015,07,16,08,42,16.40
2015,07,16,08,43,16.40
2015,07,16,08,44,16.30
2015,07,16,08,45,16.30
2015,07,16,08,46,16.20
2015,07,16,08,47,16.20
2015,07,16,08,48,16.20
2015,07,16,08,49,16.30
2015,07,16,08,50,16.30
2015,07,16,08,51,16.30
2015,07,16,08,52,16.20
2015,07,16,08,53,16.20
2015,07,16,08,54,16.20
2015,07,16,08,55,16.10
2015,07,16,08,56,16.10
2015,07,16,08,57,16.10
2015,07,16,08,58,16.10
2015,07,16,08,59,16.20
2015,07,16,09,00,16.30
2015,07,16,09,01,16.30
2015,07,16,09,02,16.40
2015,07,16,09,03,16.40
2015,07,16,09,04,16.30
2015,07,16,09,05,16.30
2015,07,16,09,06,16.30
2015,07,16,09,07,16.40
2015,07,16,09,08,16.40
2015,07,16,09,09,16.40
2015,07,16,09,10,16.40
2015,07,16,09,11,16.40
2015,07,16,09,12,16.40
2015,07,16,09,13,16.40
2015,07,16,09,14,16.40
2015,07,16,09,15,16.30
2015,07,16,09,16,16.30
2015,07,16,09,17,16.40
2015,07,16,09,18,16.40
2015,07,16,09,19,16.40
2015,07,16,09,20,16.40
2015,07,16,09,21,16.40
2015,07,16,09,22,16.40
2015,07,16,09,23,16.40
2015,07,16,09,24,16.40
2015,07,16,09,25,16.40
2015,07,16,09,26,16.30
2015,07,16,09,27,16.30
2015,07,16,09,28,16.20
2015,07,16,09,29,16.20
2015,07,16,09,30,16.20
2015,07,16,09,31,16.20
2015,07,16,09,32,16.20
2015,07,16,09,33,16.30
2015,07,16,09,34,16.30
2015,07,16,09,35,16.40
2015,07,16,09,36,16.40
2015,07,16,09,37,16.50
2015,07,16,09,38,16.50
2015,07,16,09,39,16.50
2015,07,16,09,40,16.60
2015,07,16,09,41,16.60
2015,07,16,09,42,16.60
2015,07,16,09,43,16.60
2015,07,16,09,44,16.70
2015,07,16,09,45,16.70
2015,07,16,09,46,16.70
2015,07,16,09,47,16.70
2015,07,16,09,48,16.80
2015,07,16,09,49,16.80
2015,07,16,09,50,16.80
2015,07,16,09,51,16.80
2015,07,16,09,52,16.80
2015,07,16,09,53,16.80
2015,07,16,09,54,16.80
2015,07,16,09,55,16.90
2015,07,16,09,56,16.90
2015,07,16,09,57,16.90
2015,07,16,09,58,16.90
2015,07,16,09,59,17.00
2015,07,16,10,00,17.00
2015,07,16,10,01,17.00
2015,07,16,10,02,17.00
2015,07,16,10,03,17.10
2015,07,16,10,04,17.10
2015,07,16,10,05,17.20
2015,07,16,10,06,17.20
2015,07,16,10,07,17.30
2015,07,16,10,08,17.30
2015,07,16,10,09,17.30
2015,07,16,10,10,17.30
2015,07,16,10,11,17.30
2015,07,16,10,12,17.40
2015,07,16,10,13,17.40
2015,07,16,10,14,17.50
2015,07,16,10,15,17.50
2015,07,16,10,16,17.50
2015,07,16,10,17,17.60
2015,07,16,10,18,17.60
2015,07,16,10,19,17.70
2015,07,16,10,20,17.70
2015,07,16,10,21,17.80
2015,07,16,10,22,17.80
2015,07,16,10,23,17.80
2015,07,16,10,24,17.90
2015,07,16,10,25,17.90
2015,07,16,10,26,17.90
2015,07,16,10,27,18.00
2015,07,16,10,28,18.00
2015,07,16,10,29,18.10
2015,07,16,10,30,18.20
2015,07,16,10,31,18.20
2015,07,16,10,32,18.20
2015,07,16,10,33,18.30
2015,07,16,10,34,18.30
2015,07,16,10,35,18.30
2015,07,16,10,36,18.30
2015,07,16,10,37,18.40
2015,07,16,10,38,18.40
2015,07,16,10,39,18.50
2015,07,16,10,40,18.60
2015,07,16,10,41,18.70
2015,07,16,10,42,18.80
2015,07,16,10,43,18.80
2015,07,16,10,44,18.90
2015,07,16,10,45,18.90
2015,07,16,10,46,19.00
2015,07,16,10,47,19.00
2015,07,16,10,48,19.00
2015,07,16,10,49,19.00
2015,07,16,10,50,19.10
2015,07,16,10,51,19.10
2015,07,16,10,52,19.10
2015,07,16,10,53,19.10
2015,07,16,10,54,19.20
2015,07,16,10,55,19.20
2015,07,16,10,56,19.20
2015,07,16,10,57,19.30
2015,07,16,10,58,19.30
2015,07,16,10,59,19.40
2015,07,16,11,00,19.50
2015,07,16,11,01,19.50
2015,07,16,11,02,19.50
2015,07,16,11,03,19.50
2015,07,16,11,04,19.40
2015,07,16,11,05,19.40
2015,07,16,11,06,19.40
2015,07,16,11,07,19.40
2015,07,16,11,08,19.40
2015,07,16,11,09,19.40
2015,07,16,11,10,19.50
2015,07,16,11,11,19.60
2015,07,16,11,12,19.60
2015,07,16,11,13,19.70
2015,07,16,11,14,19.60
2015,07,16,11,15,19.60
2015,07,16,11,16,19.60
2015,07,16,11,17,19.60
2015,07,16,11,18,19.70
2015,07,16,11,19,19.70
2015,07,16,11,20,19.80
2015,07,16,11,21,19.80
2015,07,16,11,22,19.80
2015,07,16,11,23,19.80
2015,07,16,11,24,19.80
2015,07,16,11,25,19.80
2015,07,16,11,26,19.80
2015,07,16,11,27,19.80
2015,07,16,11,28,19.80
2015,07,16,11,29,19.80
2015,07,16,11,30,19.80
2015,07,16,11,31,19.80
2015,07,16,11,32,19.80
2015,07,16,11,33,19.90
2015,07,16,11,34,20.00
2015,07,16,11,35,20.10
2015,07,16,11,36,20.10
2015,07,16,11,37,20.20
2015,07,16,11,38,20.20
2015,07,16,11,39,20.20
2015,07,16,11,40,20.20
2015,07,16,11,41,20.20
2015,07,16,11,42,20.20
2015,07,16,11,43,20.20
2015,07,16,11,44,20.20
2015,07,16,11,45,20.20
2015,07,16,11,46,20.30
2015,07,16,11,47,20.30
2015,07,16,11,48,20.30
2015,07,16,11,49,20.30
2015,07,16,11,50,20.30
2015,07,16,11,51,20.30
2015,07,16,11,52,20.30
2015,07,16,11,53,20.40
2015,07,16,11,54,20.40
2015,07,16,11,55,20.50
2015,07,16,11,56,20.60
2015,07,16,11,57,20.60
2015,07,16,11,58,20.70
2015,07,16,11,59,20.70
2015,07,16,12,00,20.80
2015,07,16,12,01,20.80
2015,07,16,12,02,20.70
2015,07,16,12,03,20.70
2015,07,16,12,04,20.60
2015,07,16,12,05,20.50
2015,07,16,12,06,20.40
2015,07,16,12,07,20.40
2015,07,16,12,08,20.40
2015,07,16,12,09,20.40
2015,07,16,12,10,20.40
2015,07,16,12,11,20.40
2015,07,16,12,12,20.50
2015,07,16,12,13,20.60
2015,07,16,12,14,20.70
2015,07,16,12,15,20.70
2015,07,16,12,16,20.80
2015,07,16,12,17,20.80
2015,07,16,12,18,20.80
2015,07,16,12,19,20.90
2015,07,16,12,20,20.90
2015,07,16,12,21,21.00
2015,07,16,12,22,21.10
2015,07,16,12,23,21.10
2015,07,16,12,24,21.20
2015,07,16,12,25,21.20
2015,07,16,12,26,21.30
2015,07,16,12,27,21.30
2015,07,16,12,28,21.30
2015,07,16,12,29,21.40
2015,07,16,12,30,21.40
2015,07,16,12,31,21.50
2015,07,16,12,32,21.50
2015,07,16,12,33,21.60
2015,07,16,12,34,21.70
2015,07,16,12,35,21.80
2015,07,16,12,36,21.90
2015,07,16,12,37,21.90
2015,07,16,12,38,21.80
2015,07,16,12,39,21.80
2015,07,16,12,40,21.70
2015,07,16,12,41,21.60
2015,07,16,12,42,21.60
2015,07,16,12,43,21.60
2015,07,16,12,44,21.60
2015,07,16,12,45,21.60
2015,07,16,12,46,21.60
2015,07,16,12,47,21.70
2015,07,16,12,48,21.70
2015,07,16,12,49,21.70
2015,07,16,12,50,21.70
2015,07,16,12,51,21.70
2015,07,16,12,52,21.70
2015,07,16,12,53,21.70
2015,07,16,12,54,21.70
2015,07,16,12,55,21.70
2015,07,16,12,56,21.60
2015,07,16,12,57,21.60
2015,07,16,12,58,21.60
2015,07,16,12,59,21.70
2015,07,16,13,00,21.80
2015,07,16,13,01,21.80
2015,07,16,13,02,21.80
2015,07,16,13,03,21.90
2015,07,16,13,04,21.90
2015,07,16,13,05,21.90
2015,07,16,13,06,21.90
2015,07,16,13,07,21.90
2015,07,16,13,08,21.80
2015,07,16,13,09,21.80
2015,07,16,13,10,21.70
2015,07,16,13,11,21.70
2015,07,16,13,12,21.60
2015,07,16,13,13,21.60
2015,07,16,13,14,21.70
2015,07,16,13,15,21.60
2015,07,16,13,16,21.60
2015,07,16,13,17,21.60
2015,07,16,13,18,21.60
2015,07,16,13,19,21.50
2015,07,16,13,20,21.50
2015,07,16,13,21,21.40
2015,07,16,13,22,21.40
2015,07,16,13,23,21.30
2015,07,16,13,24,21.30
2015,07,16,13,25,21.30
2015,07,16,13,26,21.40
2015,07,16,13,27,21.40
2015,07,16,13,28,21.50
2015,07,16,13,29,21.50
2015,07,16,13,30,21.40
2015,07,16,13,31,21.30
2015,07,16,13,32,21.30
2015,07,16,13,33,21.30
2015,07,16,13,34,21.30
2015,07,16,13,35,21.30
2015,07,16,13,36,21.30
2015,07,16,13,37,21.30
2015,07,16,13,38,21.40
2015,07,16,13,39,21.40
2015,07,16,13,40,21.40
2015,07,16,13,41,21.40
2015,07,16,13,42,21.30
2015,07,16,13,43,21.40
2015,07,16,13,44,21.40
2015,07,16,13,45,21.50
2015,07,16,13,46,21.50
2015,07,16,13,47,21.60
2015,07,16,13,48,21.70
2015,07,16,13,49,21.70
2015,07,16,13,50,21.70
2015,07,16,13,51,21.60
2015,07,16,13,52,21.60
2015,07,16,13,53,21.50
2015,07,16,13,54,21.40
2015,07,16,13,55,21.40
2015,07,16,13,56,21.30
2015,07,16,13,57,21.10
2015,07,16,13,58,21.10
2015,07,16,13,59,21.10
2015,07,16,14,00,21.10
2015,07,16,14,01,21.20
2015,07,16,14,02,21.20
2015,07,16,14,03,21.20
2015,07,16,14,04,21.30
2015,07,16,14,05,21.40
2015,07,16,14,06,21.50
2015,07,16,14,07,21.60
2015,07,16,14,08,21.60
2015,07,16,14,09,21.60
2015,07,16,14,10,21.60
2015,07,16,14,11,21.60
2015,07,16,14,12,21.70
2015,07,16,14,13,21.70
2015,07,16,14,14,21.70
2015,07,16,14,15,21.70
2015,07,16,14,16,21.70
2015,07,16,14,17,21.80
2015,07,16,14,18,21.80
2015,07,16,14,19,21.80
2015,07,16,14,20,21.80
2015,07,16,14,21,21.80
2015,07,16,14,22,21.80
2015,07,16,14,23,21.80
2015,07,16,14,24,21.80
2015,07,16,14,25,21.70
2015,07,16,14,26,21.70
2015,07,16,14,27,21.70
2015,07,16,14,28,21.60
2015,07,16,14,29,21.60
2015,07,16,14,30,21.50
2015,07,16,14,31,21.40
2015,07,16,14,32,21.40
2015,07,16,14,33,21.30
2015,07,16,14,34,21.30
2015,07,16,14,35,21.30
2015,07,16,14,36,21.30
2015,07,16,14,37,21.40
2015,07,16,14,38,21.50
2015,07,16,14,39,21.60
2015,07,16,14,40,21.70
2015,07,16,14,41,21.80
2015,07,16,14,42,21.80
2015,07,16,14,43,21.90
2015,07,16,14,44,21.90
2015,07,16,14,45,21.90
2015,07,16,14,46,21.90
2015,07,16,14,47,21.90
2015,07,16,14,48,21.90
2015,07,16,14,49,21.90
2015,07,16,14,50,21.90
2015,07,16,14,51,21.90
2015,07,16,14,52,21.90
2015,07,16,14,53,21.90
2015,07,16,14,54,21.90
2015,07,16,14,55,21.90
2015,07,16,14,56,21.90
2015,07,16,14,57,21.90
2015,07,16,14,58,21.90
2015,07,16,14,59,22.00
2015,07,16,15,00,22.00
2015,07,16,15,01,22.10
2015,07,16,15,02,22.20
2015,07,16,15,03,22.30
2015,07,16,15,04,22.30
2015,07,16,15,05,22.40
2015,07,16,15,06,22.50
2015,07,16,15,07,22.50
2015,07,16,15,08,22.60
2015,07,16,15,09,22.60
2015,07,16,15,10,22.60
2015,07,16,15,11,22.50
2015,07,16,15,12,22.50
2015,07,16,15,13,22.40
2015,07,16,15,14,22.40
2015,07,16,15,15,22.30
2015,07,16,15,16,22.20
2015,07,16,15,17,22.10
2015,07,16,15,18,22.10
2015,07,16,15,19,22.20
2015,07,16,15,20,22.30
2015,07,16,15,21,22.30
2015,07,16,15,22,22.40
2015,07,16,15,23,22.50
2015,07,16,15,24,22.50
2015,07,16,15,25,22.60
2015,07,16,15,26,22.60
2015,07,16,15,27,22.70
2015,07,16,15,28,22.70
2015,07,16,15,29,22.70
2015,07,16,15,30,22.80
2015,07,16,15,31,22.90
2015,07,16,15,32,23.00
2015,07,16,15,33,23.10
2015,07,16,15,34,23.10
2015,07,16,15,35,23.10
2015,07,16,15,36,23.10
2015,07,16,15,37,23.10
2015,07,16,15,38,23.10
2015,07,16,15,39,23.10
2015,07,16,15,40,23.20
2015,07,16,15,41,23.20
2015,07,16,15,42,23.20
2015,07,16,15,43,23.10
2015,07,16,15,44,23.10
2015,07,16,15,45,23.10
2015,07,16,15,46,23.10
2015,07,16,15,47,23.00
2015,07,16,15,48,22.90
2015,07,16,15,49,22.90
2015,07,16,15,50,22.90
2015,07,16,15,51,23.00
2015,07,16,15,52,23.00
2015,07,16,15,53,22.90
2015,07,16,15,54,22.90
2015,07,16,15,55,22.90
2015,07,16,15,56,22.80
2015,07,16,15,57,22.80
2015,07,16,15,58,22.70
2015,07,16,15,59,22.70
2015,07,16,16,00,22.80
2015,07,16,16,01,22.80
2015,07,16,16,02,22.80
2015,07,16,16,03,22.70
2015,07,16,16,04,22.60
2015,07,16,16,05,22.40
2015,07,16,16,06,22.30
2015,07,16,16,07,22.20
2015,07,16,16,08,22.20
2015,07,16,16,09,22.20
2015,07,16,16,10,22.30
2015,07,16,16,11,22.30
2015,07,16,16,12,22.40
2015,07,16,16,13,22.50
2015,07,16,16,14,22.60
2015,07,16,16,15,22.70
2015,07,16,16,16,22.90
2015,07,16,16,17,23.00
2015,07,16,16,18,23.10
2015,07,16,16,19,23.10
2015,07,16,16,20,23.10
2015,07,16,16,21,23.00
2015,07,16,16,22,22.90
2015,07,16,16,23,22.70
2015,07,16,16,24,22.60
2015,07,16,16,25,22.60
2015,07,16,16,26,22.50
2015,07,16,16,27,22.50
2015,07,16,16,28,22.60
2015,07,16,16,29,22.60
2015,07,16,16,30,22.80
2015,07,16,16,31,22.90
2015,07,16,16,32,23.00
2015,07,16,16,33,23.10
2015,07,16,16,34,23.10
2015,07,16,16,35,23.00
2015,07,16,16,36,22.90
2015,07,16,16,37,22.80
2015,07,16,16,38,22.70
2015,07,16,16,39,22.60
2015,07,16,16,40,22.60
2015,07,16,16,41,22.60
2015,07,16,16,42,22.60
2015,07,16,16,43,22.70
2015,07,16,16,44,22.70
2015,07,16,16,45,22.70
2015,07,16,16,46,22.80
2015,07,16,16,47,22.80
2015,07,16,16,48,22.70
2015,07,16,16,49,22.60
2015,07,16,16,50,22.60
2015,07,16,16,51,22.70
2015,07,16,16,52,22.70
2015,07,16,16,53,22.80
2015,07,16,16,54,22.70
2015,07,16,16,55,22.60
2015,07,16,16,56,22.50
2015,07,16,16,57,22.40
2015,07,16,16,58,22.40
2015,07,16,16,59,22.40
2015,07,16,17,00,22.40
2015,07,16,17,01,22.50
2015,07,16,17,02,22.50
2015,07,16,17,03,22.50
2015,07,16,17,04,22.50
2015,07,16,17,05,22.50
2015,07,16,17,06,22.60
2015,07,16,17,07,22.60
2015,07,16,17,08,22.70
2015,07,16,17,09,22.70
2015,07,16,17,10,22.70
2015,07,16,17,11,22.70
2015,07,16,17,12,22.70
2015,07,16,17,13,22.70
2015,07,16,17,14,22.80
2015,07,16,17,15,22.80
2015,07,16,17,16,22.80
2015,07,16,17,17,22.90
2015,07,16,17,18,22.80
2015,07,16,17,19,22.90
2015,07,16,17,20,22.90
2015,07,16,17,21,22.90
2015,07,16,17,22,22.90
2015,07,16,17,23,22.90
2015,07,16,17,24,22.90
2015,07,16,17,25,22.90
2015,07,16,17,26,22.90
2015,07,16,17,27,22.90
2015,07,16,17,28,22.80
2015,07,16,17,29,22.80
2015,07,16,17,30,22.70
2015,07,16,17,31,22.60
2015,07,16,17,32,22.50
2015,07,16,17,33,22.40
2015,07,16,17,34,22.40
2015,07,16,17,35,22.30
2015,07,16,17,36,22.30
2015,07,16,17,37,22.20
2015,07,16,17,38,22.20
2015,07,16,17,39,22.20
2015,07,16,17,40,22.20
2015,07,16,17,41,22.20
2015,07,16,17,42,22.30
2015,07,16,17,43,22.30
2015,07,16,17,44,22.30
2015,07,16,17,45,22.20
2015,07,16,17,46,22.20
2015,07,16,17,47,22.10
2015,07,16,17,48,22.10
2015,07,16,17,49,22.00
2015,07,16,17,50,22.00
2015,07,16,17,51,22.00
2015,07,16,17,52,21.90
2015,07,16,17,53,21.80
2015,07,16,17,54,21.80
2015,07,16,17,55,21.80
2015,07,16,17,56,21.70
2015,07,16,17,57,21.70
2015,07,16,17,58,21.70
2015,07,16,17,59,21.80
2015,07,16,18,00,21.80
2015,07,16,18,01,21.70
2015,07,16,18,02,21.70
2015,07,16,18,03,21.70
2015,07,16,18,04,21.70
2015,07,16,18,05,21.70
2015,07,16,18,06,21.60
2015,07,16,18,07,21.60
2015,07,16,18,08,21.60
2015,07,16,18,09,21.60
2015,07,16,18,10,21.70
2015,07,16,18,11,21.70
2015,07,16,18,12,21.70
2015,07,16,18,13,21.70